Location: Newark
(33.6333°S, 78.8500°W)
Time: 01:03:24
(UTC+00:00)

Tiros 1 despin weight - Pass Details

Date: 24 September 2019
Orbit: 593 x 643 km, 48.2° (Epoch: 21 October)

Event Time Altitude Azimuth Distance (km) Brightness Sun altitude
Rises 02:39:52 0° 328° (NNW) 2,833 - -41.5°
Reaches altitude 10° 02:42:14 10° 336° (NNW) 1,944 - -41.9°
Maximum altitude 02:46:25 40° 45° (NE) 903 - -42.6°
Drops below altitude 10° 02:50:42 10° 114° (ESE) 1,992 - -43.3°
Sets 02:53:09 0° 121° (ESE) 2,913 - -43.6°
